Osoyoos, British Columbia

12:03 PM PST on December 09, 2016 (GMT -0800)
Osoyoos

Weather History for CWYY - October, 2011

Change the Weather History Date:

Thursday, October 13, 2011

  Actual Average (CYYF) Record (CYYF)
Temperature  
Mean Temperature 48 °F -  
Max Temperature 61 °F 56 °F 69 °F (1999)
Min Temperature 35 °F 37 °F 28 °F (2002)
Degree Days  
Heating Degree Days 17    
Moisture  
Dew Point 34 °F    
Average Humidity 62    
Maximum Humidity 92    
Minimum Humidity 21    
Precipitation  
Precipitation 0.00 in - - ()
Sea Level Pressure  
Sea Level Pressure 30.18 in    
Wind  
Wind Speed 2 mph ()    
Max Wind Speed 5 mph    
Max Gust Speed -    
Averages and records for this station are not official NWS values.
T = Trace of Precipitation, MM = Missing Value Source: Averaged Metar Reports

Daily Weather History Graph

Daily Weather History Graph

Search for Another Location

Airport or City:

Trip Planner

Search our weather history database for the weather conditions in past years. The results will help you decide how hot, cold, wet, or windy it might be!

Date:

Astronomy

Oct. 13, 2011 Rise Set
Actual Time 7:15 AM PDT 6:12 PM PDT
Civil Twilight 6:43 AM PDT 6:43 PM PDT
Nautical Twilight 6:06 AM PDT 7:20 PM PDT
Astronomical Twilight 5:29 AM PDT 7:57 PM PDT
Moon 6:34 PM PDT (10/13) 9:06 AM PDT (10/13)
Length of Visible Light 12h 00m
Length of Day
10h 57m
Full, 97% of the Moon is Illuminated
Oct 13
Full
Oct 19
Last Quarter
Oct 26
New
Nov 2
First Quarter
Nov 10
Full

Hourly Weather History & Observations

Time (PDT) Temp. Dew Point Humidity Pressure Visibility Wind Dir Wind Speed Gust Speed Precip Events Conditions
1:00 AM 39.7 °F 36.5 °F 88% 30.19 in - Calm Calm - N/A   Unknown
2:00 AM 37.2 °F 34.0 °F 88% 30.21 in - ESE 1.2 mph - N/A   Unknown
3:00 AM 37.0 °F 34.5 °F 91% 30.21 in - East 1.2 mph - N/A   Unknown
4:00 AM 37.2 °F 34.9 °F 91% 30.21 in - NE 1.2 mph - N/A   Unknown
5:00 AM 37.4 °F 35.1 °F 91% 30.22 in - ENE 1.2 mph - N/A   Unknown
6:00 AM 36.5 °F 34.3 °F 92% 30.22 in - ENE 1.2 mph - N/A   Unknown
7:00 AM 35.6 °F 33.4 °F 92% 30.23 in - ENE 2.3 mph - N/A   Unknown
8:00 AM 36.1 °F 34.0 °F 92% 30.24 in - ENE 1.2 mph - N/A   Unknown
9:00 AM 45.1 °F 38.3 °F 77% 30.24 in - ESE 1.2 mph - N/A   Unknown
10:00 AM 48.4 °F 37.4 °F 66% 30.24 in - NE 1.2 mph - N/A   Unknown
11:00 AM 50 °F 34 °F 41% 30.22 in - SW 2.3 mph - -  
11:00 AM 50.4 °F 33.6 °F 53% 30.22 in - SW 2.3 mph - N/A   Unknown
12:00 PM 52.5 °F 31.8 °F 45% 30.21 in - West 2.3 mph - N/A   Unknown
1:00 PM 55.8 °F 33.6 °F 43% 30.18 in - North 2.3 mph - N/A   Unknown
2:00 PM 59.5 °F 30.2 °F 33% 30.16 in - WNW 4.6 mph - N/A   Unknown
3:00 PM 60.3 °F 30.4 °F 32% 30.14 in - NW 4.6 mph - N/A   Unknown
4:00 PM 60.6 °F 30.4 °F 32% 30.13 in - NW 3.5 mph - N/A   Unknown
5:00 PM 60 °F 31 °F 21% 30.12 in - WNW 4.6 mph - -  
5:00 PM 60.1 °F 30.6 °F 33% 30.12 in - WNW 4.6 mph - N/A   Unknown
6:00 PM 56.1 °F 31.6 °F 39% 30.12 in - NW 2.3 mph - N/A   Unknown
7:00 PM 49.5 °F 35.8 °F 59% 30.13 in - ENE 1.2 mph - N/A   Unknown
8:00 PM 48.4 °F 36.1 °F 63% 30.13 in - North 2.3 mph - N/A   Unknown
9:00 PM 46.9 °F 35.2 °F 64% 30.13 in - North 1.2 mph - N/A   Unknown
10:00 PM 45.5 °F 35.6 °F 68% 30.14 in - NE 2.3 mph - N/A   Unknown
11:00 PM 46 °F 35 °F 56% 30.12 in - NE 2.3 mph - -  
11:00 PM 45.7 °F 35.2 °F 67% 30.12 in - NE 2.3 mph - N/A   Unknown